This demonstration page uses our WeatherBlox Daily Observations layout. Learn more.

Left ArrowRight Arrow

Hourly Observations for June 22, 2021

Temp ( °F °C ) Dew Point ( °F °C ) Humidity (%) Winds ( mph kmh ) Pressure ( in mb ) Visibility ( mi km ) Precip ( " mm )
12:51 am 00:51 Clear 83 28.3 39 3.9 21 21 WNW 8 13 29.73 1007 10 16 N/A
1:51 am 01:51 Clear 81 27.2 39 3.9 22 22 NW 9 15 29.72 1007 10 16 N/A
2:51 am 02:51 Clear 82 27.8 40 4.4 22 22 NNW 9 15 29.73 1007 10 16 N/A
3:51 am 03:51 Clear 80 26.7 40 4.4 24 24 NNW 5 7 29.74 1007 10 16 N/A
4:51 am 04:51 Clear 73 22.8 38 3.3 28 28 SE 5 7 29.76 1008 10 16 N/A
5:51 am 05:51 Sunny 74 23.3 38 3.3 27 27 ESE 7 11 29.78 1008 10 16 N/A
6:51 am 06:51 Sunny 80 26.7 38 3.3 22 22 E 3 6 29.79 1009 10 16 N/A
7:51 am 07:51 Sunny 84 28.9 40 4.4 21 21 SSE 8 13 29.80 1009 10 16 N/A
8:51 am 08:51 Sunny 89 31.7 41 5 19 19 N N/A 29.78 1008 10 16 N/A
9:51 am 09:51 Sunny 95 35 40 4.4 15 15 VRB 5 7 29.77 1008 10 16 N/A
10:51 am 10:51 Sunny 98 36.7 40 4.4 13 13 undefined N/A 29.75 1007 10 16 N/A
11:51 am 11:51 Sunny 100 37.8 39 3.9 12 12 WNW 7 11 29.73 1007 10 16 N/A
12:51 pm 12:51 Sunny 102 38.9 35 1.7 10 10 NW 9 15 29.71 1006 10 16 N/A
1:51 pm 13:51 Sunny 103 39.4 32 undefined 8 8 VRB 6 9 29.70 1006 10 16 N/A
2:51 pm 14:51 Sunny 104 40 31 -0.6 8 8 WNW 12 19 29.67 1005 10 16 N/A
3:51 pm 15:51 Mostly Sunny 105 40.6 33 0.6 8 8 W 25 41 29.65 1004 10 16 N/A
4:51 pm 16:51 Sunny 98 36.7 47 8.3 17 17 W 29 46 29.67 1005 10 16 N/A
5:51 pm 17:51 Sunny 96 35.6 46 7.8 18 18 WNW 23 37 29.67 1005 10 16 N/A
6:51 pm 18:51 Mostly Sunny 94 34.4 46 7.8 19 19 NW 22 35 29.68 1005 10 16 N/A
7:51 pm 19:51 Mostly Clear 92 33.3 48 8.9 22 22 NW 22 35 29.67 1005 10 16 N/A
8:51 pm 20:51 Clear 90 32.2 49 9.4 24 24 W 12 19 29.71 1006 10 16 N/A
9:51 pm 21:51 Clear 90 32.2 48 8.9 24 24 NW 13 20 29.70 1006 10 16 N/A
10:51 pm 22:51 Mostly Clear 89 31.7 49 9.4 25 25 NW 6 9 29.75 1007 10 16 N/A
11:51 pm 23:51 Mostly Clear 87 30.6 48 8.9 26 26 NW 12 19 29.75 1007 10 16 N/A

Powered by AerisWeather